TimeCST,TemperatureF,Dew PointF,Humidity,Sea Level PressureIn,VisibilityMPH,Wind Direction,Wind SpeedMPH,Gust SpeedMPH,PrecipitationIn,Events,Conditions,WindDirDegrees,DateUTC
12:53 AM,44.1,33.1,65,30.22,10.0,SSE,4.6,-,N/A,,Clear,150,2013-03-07 06:53:00
1:53 AM,45.0,27.0,49,30.21,10.0,SSE,6.9,-,N/A,,Clear,150,2013-03-07 07:53:00
2:53 AM,45.0,27.0,49,30.20,10.0,SE,5.8,-,N/A,,Clear,140,2013-03-07 08:53:00
3:53 AM,44.1,25.0,47,30.19,10.0,SE,5.8,-,N/A,,Clear,130,2013-03-07 09:53:00
4:53 AM,44.1,26.1,49,30.22,10.0,SE,5.8,-,N/A,,Clear,140,2013-03-07 10:53:00
5:53 AM,44.1,25.0,47,30.23,10.0,SE,5.8,-,N/A,,Clear,130,2013-03-07 11:53:00
6:53 AM,42.1,27.0,55,30.24,10.0,SE,5.8,-,N/A,,Clear,140,2013-03-07 12:53:00
7:53 AM,48.0,30.9,52,30.26,8.0,SSE,5.8,-,N/A,,Clear,150,2013-03-07 13:53:00
8:53 AM,53.1,33.1,47,30.27,10.0,SSE,8.1,-,N/A,,Clear,160,2013-03-07 14:53:00
9:53 AM,57.9,33.1,39,30.28,10.0,SSE,8.1,-,N/A,,Clear,160,2013-03-07 15:53:00
10:53 AM,61.0,32.0,34,30.27,10.0,SSE,6.9,-,N/A,,Clear,150,2013-03-07 16:53:00
11:53 AM,64.0,28.0,26,30.25,10.0,SSE,11.5,-,N/A,,Clear,160,2013-03-07 17:53:00
12:53 PM,68.0,26.1,21,30.22,10.0,SSE,13.8,-,N/A,,Clear,150,2013-03-07 18:53:00
1:53 PM,69.1,26.1,20,30.19,10.0,South,10.4,19.6,N/A,,Clear,180,2013-03-07 19:53:00
2:53 PM,70.0,26.1,19,30.16,10.0,SSE,16.1,19.6,N/A,,Clear,150,2013-03-07 20:53:00
3:53 PM,70.0,30.0,23,30.14,10.0,SE,12.7,-,N/A,,Clear,140,2013-03-07 21:53:00
4:53 PM,69.1,32.0,25,30.13,10.0,SE,11.5,-,N/A,,Clear,140,2013-03-07 22:53:00
5:53 PM,66.0,30.0,26,30.14,10.0,SSE,11.5,-,N/A,,Clear,150,2013-03-07 23:53:00
6:53 PM,62.1,34.0,35,30.15,10.0,SE,5.8,-,N/A,,Clear,130,2013-03-08 00:53:00
7:53 PM,59.0,36.0,42,30.15,10.0,SE,8.1,-,N/A,,Clear,130,2013-03-08 01:53:00
8:53 PM,57.9,37.0,46,30.17,10.0,SE,8.1,-,N/A,,Clear,140,2013-03-08 02:53:00
9:53 PM,57.0,36.0,45,30.16,9.0,SE,10.4,-,N/A,,Clear,140,2013-03-08 03:53:00
10:53 PM,55.9,37.0,49,30.16,9.0,SE,8.1,-,N/A,,Clear,140,2013-03-08 04:53:00
11:53 PM,54.0,39.0,57,30.15,10.0,SE,8.1,-,N/A,,Clear,140,2013-03-08 05:53:00